Location: Asheville, NC
(35.6000°N, 82.5500°W)
Time: 00:30:18
(UTC-04:00)

BEESAT 2 - Pass Details

Date: 12 March 2018
Orbit: 502 x 532 km, 64.9° (Epoch: 24 June)

Event Time Altitude Azimuth Distance (km) Brightness Sun altitude
Rises 20:21:11 0° 165° (SSE) 2,625 ? -10.2°
Reaches altitude 10° 20:24:17 10° 138° (SE) 1,752 ? -10.8°
Enters shadow 20:25:27 13° 121° (ESE) 1,584 ? -11.0°
